Regional Weather Roundup
Issued by NWS

Home | Current Version | Previous Version | Text Only | Print | Product List | Glossary Off
Versions: 1 2 3 4 5 6 7 8 9 10 11 12 13 14 15 16 17 18 19 20 21 22 23 24 25 26 27 28 29 30 31 32 33 34 35 36 37 38 39 40 41 42 43 44 45 46 47 48 49 50

000
ASUS43 KMPX 030601
RWRMN
WEATHER ROUNDUP FOR MINNESOTA
NATIONAL WEATHER SERVICE TWIN CITIES/CHANHASSEN MN
100 AM CDT MON AUG 03 2015


NOTE: "FAIR" INDICATES FEW OR NO CLOUDS BELOW 12,000 FEET WITH NO
SIGNIFICANT WEATHER AND/OR OBSTRUCTIONS TO VISIBILITY. N/A MEANS
CURRENT SKY AND/OR WEATHER CONDITIONS ARE NOT AVAILABLE.

MNZ060>063-068>070-030700-
   Twin Cities Metro

CITY           SKY/WX    TMP DP  RH WIND       PRES   REMARKS
TWIN CITIES    CLEAR     67  51  56 NW6       29.87R
6HR MIN TEMP:  66; 6HR MAX TEMP:  80;

ST PAUL        CLEAR     66  50  56 NW10      29.86R
CRYSTAL        CLEAR     65  51  60 NW7       29.85R
BLAINE         CLEAR     63  52  67 NW6       29.86R
LAKEVILLE      CLEAR     61  54  77 W5        29.88R
EDEN PRAIRIE   CLEAR     67  51  56 NW6       29.87R
6HR MIN TEMP:  67; 6HR MAX TEMP:  81;

SOUTH ST PAUL  CLEAR     67  49  51 NW7       29.87R
LAKE ELMO      FAIR      63  52  67 NW5       29.87R
$$
MNZ001>005-007-008-013>017-022>024-027-028-030700-
   Northwest Minnesota

CITY           SKY/WX    TMP DP  RH WIND       PRES   REMARKS
BEMIDJI        CLEAR     54  46  72 W7        29.85R
HALLOCK        CLOUDY    57  52  82 NW6       29.86R
ROSEAU         CLOUDY    57  50  77 W8        29.82S
WARROAD        CLOUDY    59  48  67 W7        29.82R
THIEF RVR FALL CLEAR     57  46  67 W6        29.86S
CROOKSTON      CLEAR     54  48  82 NW3       29.88R
FOSSTON        CLEAR     48  43  81 CALM      29.87R
DETROIT LAKES  CLEAR     59  50  72 NW5       29.90R
MOORHEAD       CLEAR     55  52  88 NW8       29.89R
PARK RAPIDS    CLEAR     53  48  83 W3        29.86R
MAHNOMEN       FAIR      54  51  88 NW3       29.87R
$$
MNZ006-009>011-018-025>026-030700-
   North Central Minnesota

CITY           SKY/WX    TMP DP  RH WIND       PRES   REMARKS
BAUDETTE       MOCLDY    59  47  64 W12       29.79R
FLAG ISLAND    MOCLDY    63  52  67 NW18G25   29.78R
INTL FALLS     CLEAR     56  49  77 W6        29.76R
6HR MIN TEMP:  56; 6HR MAX TEMP:  69;

WASKISH        CLEAR     63  48  59 W14       29.81R
BIG FORK       CLEAR     57  45  62 W3        29.80S
LONGVILLE      CLEAR     54  48  82 W3        29.84R
GRAND RAPIDS   CLEAR     61  43  51 NW9       29.82R
CRANE LAKE     PTCLDY    52  48  87 SW1       29.76S
ORR            PTCLDY    59  46  63 CALM      29.75R
COOK           CLOUDY    57  50  77 CALM      29.77S
WALKER         FAIR      51  47  86 W5        29.85R
$$
MNZ012-019>021-037-030700-
   Northeast Minnesota

CITY           SKY/WX    TMP DP  RH WIND       PRES   REMARKS
DULUTH         CLEAR     57  48  72 W10       29.78R
6HR MIN TEMP:  57; 6HR MAX TEMP:  72;

ELY            MOCLDY    55  48  76 CALM      29.75S
HIBBING        CLEAR     58  43  57 W6        29.79R
EVELETH        CLOUDY    63  46  55 W3        29.79R
DULUTH HARBOR  PTCLDY    64  52  63 W10       29.78R
TWO HARBORS    MOCLDY    55  52  88 CALM      29.75R
SILVER BAY     CLEAR     54  46  76 CALM      29.74R
GRAND MARAIS     N/A     59  46  62 W3        29.69R
G MARAIS ARPRT   N/A     55  45  67 NW6       29.72R
$$
MNZ029>031-032-039>041-046>048-054>057-064-030700-
   West Central Minnesota

CITY           SKY/WX    TMP DP  RH WIND       PRES   REMARKS
FERGUS FALLS   CLEAR     55  48  76 W3        29.90R
WHEATON        CLEAR     55  54  94 W6        29.92S
MORRIS         CLEAR     57  52  82 W5        29.89S
ALEXANDRIA     CLEAR     58  52  80 W7        29.91R
ELBOW LAKE     FAIR      56  50  80 W3        29.90R
WADENA         CLEAR     55  48  76 W6        29.87R
GLENWOOD       CLEAR     57  52  82 W7        29.90S
APPLETON       CLEAR     57  52  82 CALM      29.90S
BENSON         CLEAR     55  50  82 CALM      29.91R
ORTONVILLE     CLEAR     63  55  77 W5        29.91S
MADISON        CLEAR     55  54  94 W6        29.92R
WILLMAR        FAIR      57  54  88 CALM      29.92S
$$
MNZ033>034-036-042>043-049>051-058-059-030700-
   Central Minnesota

CITY           SKY/WX    TMP DP  RH WIND       PRES   REMARKS
ST CLOUD       CLEAR     57  49  74 W5        29.87R
6HR MIN TEMP:  57; 6HR MAX TEMP:  76;

SAUK CENTRE    FAIR      56  51  84 CALM      29.89S
PAYNESVILLE    CLEAR     50  49  96 SW6       29.90R
AITKIN         CLEAR     55  48  76 W5        29.84R
PINE RIVER     PTCLDY    57  48  72 CALM      29.89R
BRAINERD       PTCLDY    54  49  83 SW3       29.86R
STAPLES        CLEAR     55  48  76 CALM      29.87R
LONG PRAIRIE   FAIR      57  52  82 SW6       29.89R
LITTLE FALLS   CLEAR     52  46  82 CALM      29.87R
LITCHFIELD     CLEAR     63  55  77 CALM      29.90S
BUFFALO        CLEAR     63  49  61 CALM      29.88S
MAPLE LAKE     CLEAR     63  52  67 W5        29.88S
$$
MNZ037-044-045-052-053-030700-
   East Central Minnesota

CITY           SKY/WX    TMP DP  RH WIND       PRES   REMARKS
PRINCETON      CLEAR     57  52  82 W3        29.86R
MORA           CLEAR     55  48  76 NW3       29.87R
CAMBRIDGE      CLEAR     63  48  59 CALM      29.84R
RUSH CITY      MOCLDY    56  49  77 CALM      29.85R
MOOSE LAKE     CLEAR     52  46  82 W6        29.81R
HINCKLEY       FAIR      59  50  72 W5        29.84R
CLOQUET        CLEAR     57  45  62 W7        29.80R
MCGREGOR       CLEAR     61  46  59 W3        29.84R
$$
MNZ071>073-080-081-089-090-097-098-030700-
   Southwest Minnesota

CITY           SKY/WX    TMP DP  RH WIND       PRES   REMARKS
MONTEVIDEO     CLEAR     57  48  72 CALM      29.93S
GRANITE FALLS  CLEAR     55  53  93 W5        29.93S
CANBY          CLEAR     60  55  83 W6        29.95R
MARSHALL       CLEAR     59  52  77 W7        29.94R
REDWOOD FALLS  CLEAR     64  54  69 NW6       29.90R
OLIVIA         CLEAR     57  52  82 NW7       29.90S
PIPESTONE      CLEAR     61  57  88 CALM      29.96R
WINDOM         CLEAR     59  55  88 CALM      29.93R
WORTHINGTON    CLEAR     59  52  77 NW7       29.95R
JACKSON        CLEAR     61  55  82 NW8       29.93S
TRACY          CLEAR     63  57  82 NW5       29.94R
SLAYTON        CLEAR     59  56  92 CALM      29.96R
$$
MNZ065>067-074>077-082>085-091>093-030700-
   South Central Minnesota

CITY           SKY/WX    TMP DP  RH WIND       PRES   REMARKS
MANKATO        CLEAR     63  54  72 N5        29.90R
NEW ULM        CLEAR     61  55  82 N8        29.91R
ST JAMES         N/A     61  57  88 W5        29.91S
FAIRMONT       CLEAR     63  54  72 NW5       29.91R
GLENCOE        CLEAR     63  57  81 W6        29.90R
FARIBAULT      CLEAR     61  55  82 W5        29.89R
OWATONNA       CLEAR     57  54  88 CALM      29.89R
WASECA         CLEAR     55  54  94 NW3       29.90S
ALBERT LEA     CLEAR     63  55  77 CALM      29.89S
$$
MNZ078>079-086>088-094>096-030700-
   Southeast Minnesota

CITY           SKY/WX    TMP DP  RH WIND       PRES   REMARKS
ROCHESTER      CLEAR     60  56  86 NW9       29.88R
6HR MIN TEMP:  60; 6HR MAX TEMP:  78;

RED WING       CLEAR     63  54  72 CALM      29.85R
STANTON        CLEAR     59  53  80 W5        29.86R
DODGE CENTER   PTCLDY    63  54  72 NW7       29.88R
WINONA         CLEAR     70  55  60 NW6       29.84R
AUSTIN         CLEAR     63  55  77 NW3       29.88R
PRESTON        CLEAR     62  56  81 NW9       29.87R
$$
ABBREVIATIONS USED IN REMARKS
   TC - TEMPERATURES IN CELSIUS
  WCI - WIND CHILL INDEX
   HX - HEAT INDEX
  VSB - VISIBILITY
$$



USA.gov is the U.S. government's official web portal to all federal, state and local government web resources and services.